This demonstration page uses our WeatherBlox Daily Observations layout. Learn more.

Left ArrowRight Arrow

30.53353, -92.08151

Hourly Observations for June 1, 2023

Temp ( °F °C ) Dew Point ( °F °C ) Humidity (%) Winds ( mph kmh ) Pressure ( in mb ) Visibility ( mi km ) Precip ( " mm )
12:15 am 00:15 Clear 72 22.3 67 19.5 84 84 Calm 29.90 1012 10 16 0.00 0.00
12:35 am 00:35 Clear 72 22.4 67 19.3 83 83 Calm 29.90 1012 10 16 0.00 0.00
12:55 am 00:55 Clear 71 21.6 67 19.5 88 88 Calm 29.90 1012 10 16 0.00 0.00
1:15 am 01:15 Clear 70 21.1 67 19.4 90 90 Calm 29.89 1012 10 16 0.00 0.00
1:35 am 01:35 Clear 71 21.5 67 19.5 88 88 Calm 29.89 1012 10 16 0.00 0.00
1:55 am 01:55 Clear 69 20.8 66 19 89 89 Calm 29.89 1012 10 16 0.00 0.00
2:15 am 02:15 Clear 70 21.1 67 19.3 89 89 Calm 29.89 1012 10 16 0.00 0.00
2:35 am 02:35 Clear 70 21 66 19.1 89 89 Calm 29.89 1012 10 16 0.00 0.00
2:55 am 02:55 Clear 69 20.8 67 19.4 92 92 Calm 29.89 1012 10 16 0.00 0.00
3:15 am 03:15 Clear 69 20.5 67 19.2 92 92 Calm 29.88 1012 10 16 0.00 0.00
3:35 am 03:35 Clear 69 20.4 67 19.3 93 93 Calm 29.88 1012 10 16 0.00 0.00
3:55 am 03:55 Clear 68 20.1 66 19 93 93 Calm 29.88 1012 10 16 0.00 0.00
4:15 am 04:15 Clear 68 19.8 66 18.8 94 94 Calm 29.88 1012 7 11 0.00 0.00
4:35 am 04:35 Clear 67 19.6 65 18.6 94 94 Calm 29.88 1012 7 11 0.00 0.00
4:55 am 04:55 Clear 67 19.6 66 18.7 95 95 Calm 29.88 1012 7 11 0.00 0.00
5:15 am 05:15 Clear 67 19.2 65 18.3 95 95 Calm 29.88 1012 7 11 0.00 0.00
5:35 am 05:35 Clear 67 19.6 66 18.7 95 95 Calm 29.89 1012 7 11 0.00 0.00
5:55 am 05:55 Clear 66 19.1 65 18.3 95 95 Calm 29.90 1012 7 11 0.00 0.00
6:15 am 06:15 Sunny with Mist and Fog 67 19.3 65 18.6 96 96 Calm 29.91 1013 4 6 0.00 0.00
6:35 am 06:35 Partly Cloudy with Mist and Fog 68 20 66 19.1 95 95 Calm 29.91 1013 5 8 0.00 0.00
6:55 am 06:55 Sunny with Mist and Fog 69 20.4 67 19.4 94 94 Calm 29.91 1013 5 8 0.00 0.00
7:15 am 07:15 Sunny 70 21 67 19.7 92 92 Calm 29.92 1013 7 11 0.00 0.00
7:35 am 07:35 Sunny 72 22 68 20.1 89 89 Calm 29.92 1013 7 11 0.00 0.00
7:55 am 07:55 Sunny 74 23.3 69 20.6 85 85 ENE 3 6 29.93 1013 10 16 0.00 0.00
8:15 am 08:15 Sunny 76 24.3 70 20.9 81 81 E 6 9 29.94 1014 10 16 0.00 0.00
8:35 am 08:35 Sunny 77 24.9 69 20.7 78 78 E 7 11 29.94 1014 10 16 0.00 0.00
8:55 am 08:55 Sunny 78 25.5 69 20.6 74 74 ESE 7 11 29.94 1014 10 16 0.00 0.00
9:15 am 09:15 Sunny 80 26.5 69 20.7 71 71 ESE 5 7 29.95 1014 10 16 0.00 0.00
9:35 am 09:35 Sunny 81 27.1 69 20.3 66 66 E 5 7 29.95 1014 10 16 0.00 0.00
9:55 am 09:55 Sunny 82 27.5 68 20.1 64 64 E 5 7 29.95 1014 10 16 0.00 0.00
10:15 am 10:15 Sunny 82 27.9 68 19.9 62 62 E 6 9 29.95 1014 10 16 0.00 0.00
10:35 am 10:35 Partly Cloudy 83 28.3 67 19.2 58 58 E 6 9 29.95 1014 10 16 0.00 0.00
10:55 am 10:55 Sunny 84 28.8 64 18 52 52 SSE 3 6 29.94 1014 10 16 0.00 0.00
11:15 am 11:15 Sunny 85 29.3 63 17.3 48 48 Calm 29.94 1014 10 16 0.00 0.00
11:35 am 11:35 Sunny 86 29.8 63 17.1 46 46 E 6 9 29.95 1014 10 16 0.00 0.00
11:55 am 11:55 Sunny 85 29.4 64 17.6 49 49 E 5 7 29.94 1014 10 16 0.00 0.00
12:15 pm 12:15 Sunny 86 30.1 64 17.5 47 47 E 6 9 29.94 1014 10 16 0.00 0.00
12:35 pm 12:35 Sunny 87 30.4 63 17.4 46 46 E 5 7 29.94 1014 10 16 0.00 0.00
12:55 pm 12:55 Sunny 87 30.4 64 17.9 47 47 ENE 5 7 29.94 1014 10 16 0.00 0.00
1:15 pm 13:15 Partly Cloudy 88 30.9 64 17.9 46 46 NE 5 7 29.92 1013 10 16 0.00 0.00
1:35 pm 13:35 Sunny 89 31.4 62 16.4 41 41 E 3 6 29.92 1013 10 16 0.00 0.00
1:55 pm 13:55 Partly Cloudy 88 30.9 64 17.6 45 45 N 6 9 29.92 1013 10 16 0.00 0.00
2:15 pm 14:15 Partly Cloudy 85 29.7 63 17.1 47 47 Calm 29.92 1013 10 16 0.00 0.00
2:35 pm 14:35 Partly Cloudy 88 31.3 63 17.4 43 43 N 3 6 29.91 1013 10 16 0.00 0.00
2:55 pm 14:55 Mostly Cloudy 86 29.9 64 17.5 47 47 ENE 6 9 29.91 1013 10 16 0.00 0.00
3:15 pm 15:15 Partly Cloudy 89 31.8 64 17.9 44 44 E 5 7 29.90 1012 10 16 0.00 0.00
3:35 pm 15:35 Partly Cloudy 88 31.3 62 16.7 42 42 Calm 29.90 1012 10 16 0.00 0.00
3:55 pm 15:55 Partly Cloudy 89 31.5 64 17.7 44 44 NNE 7 11 29.89 1012 10 16 0.00 0.00
4:15 pm 16:15 Mostly Cloudy 89 31.5 63 17.4 43 43 E 5 7 29.87 1012 10 16 0.00 0.00
4:35 pm 16:35 Cloudy 86 29.9 64 17.5 47 47 ENE 6 9 29.87 1012 10 16 0.00 0.00
4:55 pm 16:55 Mostly Cloudy 85 29.6 63 17.1 47 47 Calm 29.88 1012 10 16 0.00 0.00
5:15 pm 17:15 Sunny 87 30.3 64 17.7 47 47 ENE 3 6 29.87 1012 10 16 0.00 0.00
5:35 pm 17:35 Sunny 87 30.8 63 17.4 45 45 N 3 6 29.87 1012 10 16 0.00 0.00
5:55 pm 17:55 Sunny 88 31.1 62 16.9 43 43 SE 3 6 29.87 1011 10 16 0.00 0.00
6:15 pm 18:15 Sunny 88 31 62 16.4 42 42 Calm 29.87 1011 10 16 0.00 0.00
6:35 pm 18:35 Sunny 87 30.7 63 17 44 44 NE 3 6 29.86 1011 10 16 0.00 0.00
6:55 pm 18:55 Sunny 87 30.7 63 17.4 45 45 undefined N/A 29.86 1011 10 16 0.00 0.00
7:15 pm 19:15 Sunny 86 30.1 64 17.5 47 47 Calm 29.87 1011 10 16 0.00 0.00
7:35 pm 19:35 Sunny 85 29.6 63 17.4 48 48 Calm 29.88 1012 10 16 0.00 0.00
7:55 pm 19:55 Sunny 83 28.2 65 18.5 56 56 Calm 29.88 1012 10 16 0.00 0.00
8:15 pm 20:15 Clear 82 27.5 65 18.4 58 58 Calm 29.88 1012 10 16 0.00 0.00
8:35 pm 20:35 Mostly Cloudy 80 26.7 65 18.4 60 60 Calm 29.89 1012 10 16 0.00 0.00
8:55 pm 20:55 Mostly Cloudy 79 26 66 19.1 66 66 Calm 29.90 1012 10 16 0.00 0.00
9:15 pm 21:15 Partly Cloudy 78 25.4 67 19.2 69 69 Calm 29.91 1013 10 16 0.00 0.00
9:35 pm 21:35 Clear 75 24.1 67 19.2 74 74 Calm 29.91 1013 10 16 0.00 0.00
9:55 pm 21:55 Mostly Cloudy 77 24.8 67 19.3 72 72 Calm 29.92 1013 10 16 0.00 0.00
10:15 pm 22:15 Mostly Cloudy 77 24.8 67 19.3 72 72 Calm 29.92 1013 10 16 0.00 0.00
10:35 pm 22:35 Mostly Cloudy 77 24.9 66 19.1 70 70 ENE 7 11 29.93 1013 10 16 0.00 0.00
10:55 pm 22:55 Mostly Cloudy 79 26.2 66 19 65 65 Calm 29.93 1013 10 16 0.00 0.00
11:15 pm 23:15 Cloudy 79 26.2 66 18.9 64 64 E 5 7 29.93 1013 10 16 0.00 0.00
11:35 pm 23:35 Partly Cloudy 78 25.6 66 19 67 67 E 3 6 29.92 1013 10 16 0.00 0.00
11:55 pm 23:55 Clear 77 24.9 66 19.1 70 70 Calm 29.92 1013 10 16 0.00 0.00

Powered by Vaisala Xweather